CDT,Max TemperatureF,Mean TemperatureF,Min TemperatureF,Max Dew PointF,MeanDew PointF,Min DewpointF,Max Humidity, Mean Humidity, Min Humidity, Max Sea Level PressureIn, Mean Sea Level PressureIn, Min Sea Level PressureIn, Max VisibilityMiles, Mean VisibilityMiles, Min VisibilityMiles, Max Wind SpeedMPH, Mean Wind SpeedMPH, Max Gust SpeedMPH,PrecipitationIn, CloudCover, Events, WindDirDegrees
2013-7-1,87,74,61,58,53,46,84,56,28,30.05,30.01,29.98,10,10,10,20,10,26,0.00,1,,354
2013-7-2,88,74,59,57,51,47,78,53,28,30.09,30.04,30.01,10,10,10,16,6,22,0.00,2,,360
2013-7-3,87,72,57,56,52,47,86,57,28,30.09,30.02,29.96,10,10,10,14,5,19,0.00,4,,138
2013-7-4,91,76,60,63,58,51,78,55,32,30.02,29.96,29.90,10,10,7,26,7,33,0.00,3,Thunderstorm,160
2013-7-5,92,78,63,63,61,55,87,60,32,29.98,29.93,29.86,10,9,7,18,9,23,0.00,4,,153
2013-7-6,90,80,70,67,63,60,78,61,43,29.95,29.91,29.88,10,10,9,21,10,26,T,5,Rain,150
2013-7-7,95,81,67,68,64,50,69,51,33,30.04,29.95,29.91,10,10,10,18,10,23,0.00,4,,167
2013-7-8,96,85,73,72,68,46,79,62,44,30.10,30.02,29.95,10,10,10,18,9,23,0.00,2,,165
2013-7-9,100,90,79,70,69,66,74,55,35,30.02,29.96,29.89,10,10,10,20,13,32,0.00,2,,184
2013-7-10,102,90,78,72,67,64,65,49,33,29.96,29.91,29.85,10,10,10,15,6,18,0.00,5,,240
2013-7-11,102,89,76,72,70,67,87,63,39,29.95,29.91,29.85,10,10,10,20,8,23,0.00,3,,93
2013-7-12,97,86,74,71,69,67,82,62,42,29.97,29.93,29.89,10,10,10,16,9,20,0.00,0,,142
2013-7-13,96,86,75,68,65,60,71,53,35,30.00,29.94,29.87,10,10,10,17,9,20,0.03,4,Rain,146
2013-7-14,90,81,71,68,62,59,84,62,39,30.02,29.95,29.90,10,10,10,17,7,22,T,6,Rain-Thunderstorm,172
2013-7-15,83,75,66,68,64,62,93,74,55,30.16,30.08,30.01,10,10,2,24,8,33,0.35,7,Rain-Thunderstorm,291
2013-7-16,91,81,71,71,69,66,90,69,47,30.22,30.18,30.14,10,9,6,23,5,28,0.06,6,Rain,99
2013-7-17,95,84,72,71,68,65,87,63,39,30.27,30.21,30.15,10,10,10,17,6,21,0.00,3,,141
2013-7-18,96,85,73,72,68,65,87,62,36,30.17,30.10,29.99,10,10,10,13,4,17,0.00,3,,231
2013-7-19,98,86,74,70,68,64,82,59,35,30.01,29.94,29.86,10,10,10,17,7,20,0.00,2,Thunderstorm,199
2013-7-20,98,87,75,71,68,64,74,57,39,29.91,29.87,29.78,10,10,10,21,10,28,T,4,Thunderstorm,178
2013-7-21,90,80,70,75,71,68,100,80,59,29.95,29.88,29.78,10,8,2,20,8,25,1.76,7,Rain-Thunderstorm,95
2013-7-22,94,87,79,76,72,68,74,62,49,29.90,29.83,29.75,10,10,3,23,11,29,0.06,5,Rain-Thunderstorm,185
2013-7-23,100,84,68,74,72,68,74,57,39,29.94,29.82,29.73,10,9,0,53,9,75,0.59,5,Rain-Thunderstorm,237
2013-7-24,90,81,71,71,69,64,93,73,52,29.99,29.93,29.81,10,10,1,26,7,35,0.04,5,Rain-Thunderstorm,18
2013-7-25,86,79,71,73,69,64,93,71,48,30.06,30.01,29.97,10,10,10,12,4,14,0.00,5,,102
2013-7-26,82,75,68,72,71,67,93,84,74,30.02,29.97,29.93,10,8,2,18,7,23,0.81,7,Rain-Thunderstorm,133
2013-7-27,84,75,66,67,64,58,100,72,43,30.06,30.00,29.94,10,8,0,14,5,18,0.00,4,Fog,2
2013-7-28,86,77,67,68,64,60,87,71,54,30.01,29.97,29.93,10,10,10,18,7,23,0.00,5,,73
2013-7-29,90,80,69,74,70,65,90,75,59,29.98,29.94,29.88,10,10,9,30,14,35,0.73,7,Rain-Thunderstorm,150
2013-7-30,90,81,72,75,73,71,100,78,56,30.03,29.97,29.94,10,9,1,18,4,27,0.50,7,Rain-Thunderstorm,206
2013-7-31,91,83,75,76,73,70,94,75,56,30.07,30.01,29.97,10,10,7,16,8,19,0.00,4,,351